Regional Weather Roundup
Issued by NWS

Home | Current Version | Previous Version | Graphics & Text | Print | Product List | Glossary On
Versions: 1 2 3 4 5 6 7 8 9 10 11 12 13 14 15 16 17 18 19 20 21 22 23 24 25 26 27 28 29 30 31 32 33 34 35 36 37 38 39 40 41 42 43 44 45 46 47 48 49 50
154
ASUS43 KOAX 010202
RWRNE

WEATHER ROUNDUP FOR NEBRASKA
NATIONAL WEATHER SERVICE OMAHA NE
900 PM CDT SUN APR 30 2017

NOTES: SATELLITE DATA IS BEING USED TO AUGMENT CLOUD COVER ABOVE
       12000 FEET.
       "FAIR" INDICATES FEW OR NO CLOUDS BELOW 12,000 FEET WITH NO
       SIGNIFICANT WEATHER AND/OR OBSTRUCTIONS TO VISIBILITY.

  * THESE STATIONS DO NOT REPORT WEATHER SUCH AS RAIN...SNOW OR FOG.

NEZ001>004-019>022-054>056-010300-
NEBRASKA PANHANDLE

CITY           SKY/WX    TMP DP  RH WIND       PRES   REMARKS
SCOTTSBLUFF    CLOUDY    51  26  37 N12       29.83S
ALLIANCE       CLOUDY    47  23  38 N10       29.81S
CHADRON        CLOUDY    49  27  42 NE7       29.83S
KIMBALL        CLEAR     46  24  43 N10       29.83S
SIDNEY         CLOUDY    49  22  34 N17       29.81S
$$

NEZ057>060-069>072-079>082-010300-
SOUTHWEST NEBRASKA

CITY           SKY/WX    TMP DP  RH WIND       PRES   REMARKS
NORTH PLATTE   CLOUDY    39  30  70 N8        29.72F WCI  33
IMPERIAL       CLOUDY    45  22  40 N16       29.76R
LEXINGTON      LGT SNOW  34  32  92 N23G29    29.68S WCI  22
MCCOOK         CLOUDY    37  32  82 N28       29.71F WCI  25
OGALLALA       CLOUDY    49  23  35 N14       29.77S
$$

NEZ005>010-023>029-035>040-094-010300-
NORTH CENTRAL NEBRASKA

CITY           SKY/WX    TMP DP  RH WIND       PRES   REMARKS
VALENTINE      CLOUDY    48  16  27 N12       29.78S
AINSWORTH      CLOUDY    44  25  47 N14G20    29.75S
BROKEN BOW     FLURRIES  34  33  96 N32G43    29.67S WCI  20
O`NEILL        LGT SNOW  33  32  95 N16       29.72S VSB 1   WCI  23
ORD            LGT SNOW  34  31  88 N23G31    29.64R FOG     WCI  22
THEDFORD       CLOUDY    46  21  36 N15G25    29.73F
$$

NEZ041-046>049-061>064-073>077-083>087-010300-
SOUTH CENTRAL NEBRASKA

CITY           SKY/WX    TMP DP  RH WIND       PRES   REMARKS
GRAND ISLAND   LGT SNOW  32  32 100 N16       29.61S FOG     WCI  21
AURORA         LGT RAIN  34  34  99 N18G24    29.58R WCI  23
HASTINGS       LGT SNOW  33  32  96 N23       29.59S FOG     WCI  21
HEBRON         DRIZZLE   39  38  99 N14G24    29.52R WCI  30
HOLDREGE       LGT SNOW  33  32  96 N21       29.64S WCI  21
KEARNEY *      CLOUDY    34  30  86 N20G25    29.64S WCI  22
YORK           LGT RAIN  36  36 100 N17G26    29.56R WCI  25
$$

NEZ011>018-030>034-042>045-010300-
NORTHEAST NEBRASKA

CITY           SKY/WX    TMP DP  RH WIND       PRES   REMARKS
NORFOLK        HVY RAIN  34  32  92 NE14G25   29.63R FOG     WCI  25
ALBION         LGT SNOW  36  32  88 NE10G18   29.64R WCI  28
BLAIR          DRIZZLE   41  40  96 N16       29.51S
FREMONT        DRIZZLE   41  40  98 N7        29.55S
TEKAMAH        CLOUDY    42  39  89 N14       29.56S
WAYNE          LGT RAIN  36  35  99 N14G24    29.61R WCI  27
$$

NEZ050>053-065>068-078-088>093-010300-
SOUTHEAST NEBRASKA

CITY           SKY/WX    TMP DP  RH WIND       PRES   REMARKS
LINCOLN        CLOUDY    41  40  96 N16       29.52S
OMAHA EPPLEY   CLOUDY    43  38  82 N14       29.52F
FALLS CITY     CLOUDY    46  41  82 S8        29.46R
NEBRASKA CITY  CLOUDY    43  43 100 NE13      29.48F
PLATTSMOUTH    CLOUDY    42  39  89 NE10      29.49S
$$

NEZ044-045-051>053-067-010300-
OMAHA AREA

CITY           SKY/WX    TMP DP  RH WIND       PRES   REMARKS
OMAHA EPPLEY   CLOUDY    43  38  82 N14       29.52F
BLAIR          DRIZZLE   41  40  96 N16       29.51S
FREMONT        DRIZZLE   41  40  98 N7        29.55S
MILLARD        CLOUDY    44  41  90 NE7       29.51F
OFFUTT AFB     CLOUDY    43  40  91 N12G17    29.49F
PLATTSMOUTH    CLOUDY    42  39  89 NE10      29.49S
WAHOO          CLOUDY    41  39  92 N14       29.53F
$$




USA.gov is the U.S. government's official web portal to all federal, state and local government web resources and services.